Weather History for McConnell AFB, KS

Change the Weather History Date:

Friday, September 28, 2012

  Actual Average Record
Temperature  
Mean Temperature 69 °F -  
Max Temperature 76 °F 75 °F 93 °F (1998)
Min Temperature 62 °F 53 °F 42 °F (1996)
Cooling Degree Days 4    
Growing Degree Days 19 (Base 50)    
Moisture  
Dew Point 64 °F    
Average Humidity 96    
Maximum Humidity 100    
Minimum Humidity 66    
Precipitation  
Precipitation 0.00 in - - ()
Sea Level Pressure  
Sea Level Pressure 30.11 in    
Wind  
Wind Speed 3 mph (ENE)    
Max Wind Speed 9 mph    
Max Gust Speed -    
Visibility 5 miles    
Events Fog , Rain    
Averages and records for this station are not official NWS values.
T = Trace of Precipitation, MM = Missing Value Source: NWS Daily Summary

Daily Weather History Graph

Daily Weather History Graph

Search for Another Location

Airport:

Trip Planner

Search our weather history database for the weather conditions in past years. The results will help you decide how hot, cold, wet, or windy it might be!

Date:

Astronomy

Sep. 28, 2012 Rise Set
Actual Time 7:22 AM CDT 7:15 PM CDT
Civil Twilight 6:56 AM CDT 7:42 PM CDT
Nautical Twilight 6:25 AM CDT 8:12 PM CDT
Astronomical Twilight 5:55 AM CDT 8:42 PM CDT
Moon 6:18 PM CDT (9/28) 5:55 AM CDT (9/28)
Length of Visible Light 12h 45m
Length of Day
11h 53m
Waxing Gibbous, 98% of the Moon is Illuminated
Sep 28
Waxing Gibbous
Sep 29
Full
Oct 8
Last Quarter
Oct 15
New
Oct 21
First Quarter

Hourly Weather History & Observations

Time (CDT) Temp. Dew Point Humidity Pressure Visibility Wind Dir Wind Speed Gust Speed Precip Events Conditions
12:55 AM 65.5 °F 65.5 °F 100% 30.10 in 10.0 mi ESE 5.8 mph - N/A   Mostly Cloudy
1:55 AM 64.8 °F 64.8 °F 100% 30.10 in 10.0 mi East 3.5 mph - N/A   Partly Cloudy
2:55 AM 62.4 °F 62.4 °F 100% 30.09 in 9.0 mi Calm Calm - N/A   Clear
3:24 AM 62.6 °F 62.6 °F 100% 30.09 in 9.0 mi Calm Calm - N/A   Partly Cloudy
3:37 AM 62.6 °F 62.6 °F 100% 30.09 in 4.0 mi Calm Calm - N/A   Mostly Cloudy
3:42 AM 62.6 °F 62.6 °F 100% 30.09 in 2.5 mi Calm Calm - N/A   Mostly Cloudy
3:44 AM 62.6 °F 62.6 °F 100% 30.09 in 1.5 mi Calm Calm - N/A   Mostly Cloudy
3:45 AM 62.6 °F 62.6 °F 100% 30.09 in 1.2 mi Calm Calm - N/A   Mostly Cloudy
3:46 AM 62.6 °F 62.6 °F 100% 30.09 in 1.0 mi ENE 3.5 mph - N/A   Mist
3:47 AM 62.6 °F 62.6 °F 100% 30.09 in 0.8 mi ENE 3.5 mph - N/A   Mist
3:48 AM 62.6 °F 62.6 °F 100% 30.09 in 0.5 mi ENE 3.5 mph - N/A Fog Fog
3:55 AM 63.3 °F 63.3 °F 100% 30.09 in 0.5 mi Calm Calm - N/A Fog Fog
4:28 AM 62.6 °F 62.6 °F 100% 30.10 in 0.2 mi Calm Calm - N/A Fog Fog
4:30 AM 62.6 °F 62.6 °F 100% 30.10 in 0.5 mi Calm Calm - N/A Fog Fog
5:00 AM 62.6 °F 62.6 °F 100% 30.11 in 0.5 mi Calm Calm - N/A Fog Fog
5:04 AM 62.6 °F 62.6 °F 100% 30.11 in 0.5 mi Calm Calm - N/A Fog Fog
5:22 AM 62.6 °F 62.6 °F 100% 30.11 in 0.2 mi NNE 3.5 mph - N/A Fog Fog
5:27 AM 62.6 °F 62.6 °F 100% 30.11 in 0.2 mi Calm Calm - N/A Fog Fog
5:55 AM 62.6 °F 62.6 °F 100% 30.10 in 0.2 mi NE 3.5 mph - N/A Fog Fog
6:41 AM 62.6 °F 62.6 °F 100% 30.10 in 0.5 mi Calm Calm - N/A Fog Fog
6:42 AM 62.6 °F 62.6 °F 100% 30.10 in 0.2 mi Calm Calm - N/A Fog Fog
6:48 AM 62.6 °F 62.6 °F 100% 30.11 in 0.5 mi East 3.5 mph - N/A Fog Fog
6:55 AM 62.6 °F 62.6 °F 100% 30.10 in 0.5 mi East 3.5 mph - N/A Fog Fog
7:02 AM 62.6 °F 62.6 °F 100% 30.10 in 0.2 mi Calm Calm - N/A Fog Fog
7:14 AM 62.6 °F 62.6 °F 100% 30.10 in 0.5 mi Calm Calm - N/A Fog Fog
7:15 AM 62.6 °F 62.6 °F 100% 30.10 in 0.2 mi Calm Calm - N/A Fog Fog
7:41 AM 62.6 °F 62.6 °F 100% 30.10 in 0.2 mi ENE 4.6 mph - N/A Fog Fog
7:55 AM 63.1 °F 63.1 °F 100% 30.11 in 0.2 mi East 4.6 mph - N/A Fog Fog
8:35 AM 62.6 °F 62.6 °F 100% 30.11 in 0.2 mi East 6.9 mph - N/A Fog Fog
8:37 AM 62.6 °F 62.6 °F 100% 30.11 in 0.2 mi East 8.1 mph - N/A Fog Fog
8:44 AM 62.6 °F 62.6 °F 100% 30.12 in 0.5 mi NE 8.1 mph - N/A Fog Fog
8:55 AM 63.5 °F 63.5 °F 100% 30.12 in 0.5 mi NE 6.9 mph - N/A Fog Fog
9:02 AM 62.6 °F 62.6 °F 100% 30.12 in 1.0 mi ENE 8.1 mph - N/A   Overcast
9:04 AM 62.6 °F 62.6 °F 100% 30.12 in 1.2 mi ENE 6.9 mph - N/A   Overcast
9:07 AM 64.4 °F 64.4 °F 100% 30.13 in 1.5 mi NE 6.9 mph - N/A   Overcast
9:11 AM 64.4 °F 64.4 °F 100% 30.13 in 2.0 mi ENE 5.8 mph - N/A   Overcast
9:14 AM 64.4 °F 64.4 °F 100% 30.13 in 3.0 mi NE 6.9 mph - N/A   Overcast
9:17 AM 62.6 °F 62.6 °F 100% 30.13 in 4.0 mi NE 5.8 mph - N/A Rain Light Rain
9:24 AM 64.4 °F 64.4 °F 100% 30.13 in 7.0 mi ENE 5.8 mph - N/A   Light Drizzle
9:27 AM 64.4 °F 64.4 °F 100% 30.13 in 8.0 mi ENE 5.8 mph - N/A   Overcast
9:48 AM 64.4 °F 64.4 °F 100% 30.14 in 8.0 mi ENE 5.8 mph - N/A   Overcast
9:55 AM 64.0 °F 64.0 °F 100% 30.14 in 8.0 mi ENE 5.8 mph - 0.00 in   Overcast
10:14 AM 64.4 °F 64.4 °F 100% 30.15 in 10.0 mi Variable 3.5 mph - N/A   Overcast
10:23 AM 64.4 °F 64.4 °F 100% 30.15 in 9.0 mi East 5.8 mph - N/A   Overcast
10:55 AM 65.1 °F 65.1 °F 100% 30.16 in 10.0 mi Calm Calm - N/A   Overcast
11:07 AM 66.2 °F 66.2 °F 100% 30.16 in 10.0 mi East 4.6 mph - N/A   Overcast
11:15 AM 66.2 °F 66.2 °F 100% 30.15 in 10.0 mi ENE 4.6 mph - N/A   Overcast
11:17 AM 68.0 °F 68.0 °F 100% 30.15 in 10.0 mi ENE 5.8 mph - N/A   Overcast
11:55 AM 69.1 °F 68.0 °F 96% 30.14 in 10.0 mi ENE 6.9 mph - N/A   Overcast
12:44 PM 71.6 °F 66.2 °F 83% 30.12 in 10.0 mi ENE 4.6 mph - N/A   Mostly Cloudy
1:00 PM 71.6 °F 66.2 °F 83% 30.13 in 10.0 mi ENE 4.6 mph - N/A   Mostly Cloudy
1:14 PM 73.4 °F 66.2 °F 78% 30.12 in 10.0 mi East 4.6 mph - N/A   Scattered Clouds
1:24 PM 73.4 °F 66.2 °F 78% 30.12 in 10.0 mi Variable 6.9 mph - N/A   Mostly Cloudy
1:29 PM 71.6 °F 66.2 °F 83% 30.12 in 10.0 mi East 5.8 mph - N/A   Mostly Cloudy
1:41 PM 71.6 °F 66.2 °F 83% 30.11 in 10.0 mi Variable 4.6 mph - N/A   Mostly Cloudy
1:55 PM 71.8 °F 65.3 °F 80% 30.11 in 10.0 mi ESE 4.6 mph - N/A   Mostly Cloudy
2:55 PM 73.0 °F 64.6 °F 75% 30.08 in 10.0 mi SE 3.5 mph - N/A   Partly Cloudy
3:55 PM 73.9 °F 63.5 °F 70% 30.07 in 10.0 mi Calm Calm - N/A   Clear
4:55 PM 76.3 °F 64.0 °F 66% 30.05 in 10.0 mi NE 4.6 mph - N/A   Clear
5:55 PM 72.0 °F 65.8 °F 81% 30.06 in 10.0 mi ENE 9.2 mph - N/A   Partly Cloudy
6:55 PM 70.2 °F 66.9 °F 89% 30.07 in 10.0 mi ENE 9.2 mph - N/A   Partly Cloudy
7:55 PM 68.2 °F 66.2 °F 93% 30.07 in 10.0 mi ENE 9.2 mph - N/A   Partly Cloudy
8:55 PM 67.1 °F 66.6 °F 98% 30.09 in 10.0 mi ENE 6.9 mph - N/A   Clear
9:55 PM 65.8 °F 65.8 °F 100% 30.09 in 10.0 mi East 5.8 mph - N/A   Clear
10:55 PM 64.8 °F 64.8 °F 100% 30.10 in 10.0 mi East 6.9 mph - N/A   Clear
11:55 PM 64.2 °F 64.2 °F 100% 30.11 in 10.0 mi East 4.6 mph - N/A   Scattered Clouds